Wetbulb
54.56 54.70 54.76 54.73 54.65 55.03 55.10 55.20 55.18 55.77 57.56 58.07 59.39 60.97 61.55 60.44 58.35 57.18 56.93 55.85 55.64 55.10 54.50 54.82 54.42 54.64 48.25 40.70 39.83 48.12 53.03 51.15 52.20 50.61 46.82 44.61 41.94 40.80 36.93 38.26 39.37 37.44 38.36 40.28 43.32 45.82 46.30
54.22 54.27 54.24 54.46 54.52 54.94 55.22 54.99 55.04 54.52 55.63 57.17 57.88 59.08 58.43 59.85 57.98 56.66 55.77 55.73 55.54 54.53 54.19 54.16 53.96 53.21 45.35 37.84 46.26 47.44 48.51 48.48 49.22 47.70 45.55 45.33 43.00 43.41 39.90 38.80 38.36 40.18 39.29 38.26 38.69 44.31 46.99
53.90 53.83 53.48 54.23 54.46 54.64 54.60 54.81 54.73 54.28 54.51 55.07 56.44 56.86 57.86 58.79 58.11 56.56 55.40 55.53 54.77 53.77 53.48 53.45 53.11 51.15 44.47 41.24 46.57 47.46 47.25 48.02 49.14 47.30 43.94 45.84 46.23 41.63 40.37 37.74 42.21 40.89 36.84 37.17 37.38 44.64 44.78
53.15 53.16 53.04 53.69 53.94 53.73 53.62 54.23 53.70 53.85 53.91 54.55 54.19 55.34 56.86 57.45 57.84 55.85 55.02 54.72 53.39 52.34 52.39 52.47 53.40 49.57 41.20 47.96 47.14 46.53 49.31 47.04 49.28 48.77 46.99 47.28 46.90 43.49 39.53 40.46 40.46 37.22 35.16 31.67 41.14 44.03 44.32
52.88 53.20 53.32 53.43 53.53 53.55 53.32 53.07 53.07 53.05 53.76 53.45 54.04 53.99 55.05 55.88 56.78 55.45 54.25 53.72 53.07 52.44 52.46 52.64 49.31 45.42 38.51 49.32 45.17 47.73 48.55 44.71 45.66 46.01 47.64 48.29 46.08 41.11 41.18 36.50 34.58 34.73 29.21 33.80 37.04 44.35 43.20
52.21 52.73 52.44 52.63 52.56 52.56 53.10 52.63 52.25 52.79 53.08 53.38 52.76 52.98 54.47 56.55 56.22 54.28 52.76 52.56 52.06 51.77 50.73 50.86 48.33 40.32 41.91 40.80 44.54 45.94 47.11 46.33 43.63 43.36 43.04 42.91 41.79 37.92 36.87 34.39 28.61 31.08 31.88 35.30 35.64 41.48 42.32
51.63 51.76 51.99 51.92 51.67 51.90 51.73 51.93 51.86 52.57 52.17 52.30 52.19 52.32 53.40 56.87 54.73 52.97 49.95 46.84 43.05 42.00 43.94 39.81 39.96 39.16 41.75 44.35 46.16 44.12 45.55 43.40 42.99 41.65 36.05 40.36 35.59 32.62 34.44 36.45 37.32 36.16 35.06 34.46 38.70 42.96 40.31
51.36 51.30 50.72 50.92 51.01 50.67 50.98 50.92 50.78 51.17 51.35 51.23 50.76 52.29 52.56 54.65 53.26 52.04 48.71 42.97 42.45 41.15 35.21 42.40 42.17 41.80 43.32 43.96 37.99 42.41 46.12 40.28 39.88 35.13 38.31 36.36 33.08 37.03 38.20 38.46 38.48 37.22 35.05 35.37 39.66 42.20 39.36
51.51 51.48 51.26 50.76 50.59 50.43 50.01 50.34 50.22 50.33 50.21 49.91 50.44 51.51 52.07 53.02 52.26 49.78 46.26 44.50 46.83 44.55 35.18 38.75 40.77 39.95 41.33 42.95 38.97 41.38 43.91 41.38 37.84 35.78 35.48 34.26 35.75 40.88 37.73 36.22 36.76 35.90 34.73 34.52 34.99 38.99 40.71
51.08 51.14 50.85 51.11 50.70 50.46 50.14 49.69 49.60 49.87 49.81 49.32 49.75 49.73 50.79 51.22 45.77 46.84 44.21 47.99 47.39 44.64 26.70 33.65 38.01 40.52 43.02 42.93 39.00 45.32 45.83 42.36 39.17 35.84 36.42 36.79 40.51 38.47 37.50 36.56 37.77 33.64 39.58 37.90 36.80 35.44 30.63
50.71 50.68 50.50 50.63 50.23 49.57 49.27 49.17 49.47 49.22 50.20 50.34 49.20 49.49 50.16 50.74 46.33 44.41 46.29 46.89 45.67 40.18 20.15 34.56 37.97 45.71 43.65 38.54 38.94 42.94 46.85 42.85 37.41 37.19 37.89 35.75 38.19 36.67 35.48 36.67 37.22 36.93 41.08 38.94 37.61 35.21 35.48
51.12 50.73 50.14 49.40 49.40 49.27 49.60 49.74 49.60 49.32 49.67 49.96 49.73 48.85 49.60 47.48 47.60 47.77 47.29 46.56 42.68 28.15 20.04 32.11 38.22 37.09 37.44 38.96 39.08 43.45 43.85 45.29 44.69 39.79 38.58 38.69 43.07 41.19 39.44 40.77 41.11 42.04 39.02 38.22 37.21 35.26 28.31
50.80 50.50 49.88 49.47 49.20 48.55 49.12 49.37 49.26 49.06 49.26 49.00 48.59 48.56 47.25 47.97 43.71 49.33 46.76 41.65 28.93 23.39 32.83 30.95 33.35 36.11 34.71 33.92 35.89 38.36 37.84 37.84 34.76 30.94 32.23 34.29 37.13 41.83 42.37 38.68 41.40 39.70 35.13 27.02 24.46 24.99 26.28
50.43 49.44 49.56 49.23 48.93 48.95 48.81 48.99 49.08 49.17 48.79 48.71 48.53 48.37 45.68 46.32 49.30 47.89 44.04 34.69 22.62 28.27 29.82 35.61 35.24 34.18 30.80 33.27 33.05 34.57 35.20 33.95 37.47 33.86 31.52 29.76 30.16 37.09 41.22 38.59 36.75 35.71 34.07 27.82 22.08 23.27 27.05
50.07 49.10 48.56 48.78 48.70 48.64 48.60 48.81 49.13 48.80 48.62 48.47 48.11 44.14 42.42 48.04 48.97 47.22 38.60 27.21 26.28 30.01 34.33 33.82 32.99 28.87 29.21 32.60 32.27 31.66 32.47 32.96 33.57 34.41 30.00 28.39 32.07 39.51 40.25 40.89 39.81 36.17 31.55 34.60 27.32 27.41 26.28
49.66 48.65 48.34 48.20 48.45 48.21 48.59 48.85 48.95 48.70 48.84 48.46 43.14 40.90 42.15 48.89 48.44 44.11 34.49 29.75 31.17 34.51 36.81 35.01 27.59 29.00 26.17 29.51 29.25 29.45 31.58 34.24 34.53 36.71 35.09 32.02 30.17 36.38 38.73 41.09 40.86 37.42 37.17 29.14 28.38 22.22 20.22
49.28 48.15 48.08 48.08 48.14 48.16 48.44 48.73 48.79 48.66 48.74 48.59 40.99 35.28 45.93 48.71 47.34 38.14 30.32 28.18 33.48 37.79 37.95 33.04 29.62 28.11 27.47 28.47 28.83 28.27 29.30 34.13 36.93 35.72 35.15 32.26 30.76 32.39 35.79 34.78 34.00 33.69 32.18 31.04 30.77 26.89 23.71
48.67 47.81 47.92 47.93 47.78 48.21 48.45 48.51 48.69 48.72 48.87 44.79 39.98 31.66 45.30 48.09 33.70 35.25 32.88 32.49 38.40 37.33 38.72 35.70 35.02 32.93 29.06 30.34 27.75 27.85 29.35 32.02 38.44 36.79 32.20 33.97 29.85 27.87 30.61 35.42 36.35 35.81 33.06 30.34 28.00 25.55 22.82
47.75 47.38 47.59 47.57 47.70 48.13 48.26 48.34 48.48 48.76 48.70 42.56 35.85 36.23 45.88 45.29 31.13 32.27 35.52 34.77 36.42 36.90 36.20 35.10 34.68 35.40 33.64 30.75 27.83 30.70 33.16 38.49 38.60 36.49 32.93 33.40 27.69 21.20 24.76 29.77 33.26 32.78 33.81 31.14 29.50 28.70 23.44
46.96 47.06 47.43 47.40 47.77 48.16 48.29 48.20 48.25 48.54 48.66 43.39 37.03 31.21 37.58 40.39 38.79 35.21 33.79 33.47 33.03 39.03 37.05 36.68 35.79 35.75 33.02 31.04 32.26 30.35 33.24 38.21 39.05 38.69 41.27 36.89 28.26 25.75 20.80 26.00 30.68 30.70 32.90 32.28 29.68 23.41 26.11
46.63 46.81 47.20 47.60 48.00 48.18 48.16 48.19 48.40 48.52 48.21 42.78 37.35 34.16 37.84 32.33 33.92 35.39 35.16 34.28 32.69 33.71 37.55 35.74 34.35 35.00 32.98 29.37 30.08 30.50 34.87 35.78 38.32 39.81 36.32 33.39 26.66 25.44 28.51 29.89 31.77 31.58 31.98 32.12 28.53 28.86 26.53
46.28 46.69 47.10 47.94 48.19 48.13 48.13 48.08 48.32 48.08 47.66 40.73 35.22 35.66 37.85 35.44 37.16 34.57 34.23 32.93 32.89 35.65 36.52 31.76 33.55 35.79 34.26 31.52 32.26 30.74 33.95 33.36 32.34 35.45 33.51 32.83 26.99 27.47 25.58 29.26 29.06 29.24 30.86 31.26 32.50 31.68 31.28
46.10 46.77 47.34 48.03 48.01 47.96 47.91 47.93 48.02 47.97 46.76 40.19 42.57 42.60 39.34 34.44 34.23 33.83 33.57 32.47 34.33 36.97 37.99 35.87 36.60 34.41 34.40 35.10 35.43 35.33 35.75 36.26 36.15 34.14 32.21 30.78 27.87 24.86 21.63 25.95 26.83 24.90 28.04 30.70 31.68 32.38 32.38
46.14 46.75 47.67 47.80 47.93 47.96 47.96 48.11 47.90 48.04 47.07 44.01 43.01 41.87 37.19 32.21 34.83 34.69 33.75 33.89 34.35 37.41 35.73 36.42 37.36 35.65 34.80 38.06 38.48 38.02 36.51 35.84 35.73 34.47 35.86 30.49 27.47 25.12 20.12 23.19 15.30 28.09 30.62 31.49 31.37 32.57 33.71
46.48 47.12 47.51 47.65 47.89 48.03 48.28 48.31 48.25 47.53 48.25 44.21 42.79 41.02 38.38 32.35 34.12 31.92 33.35 31.72 37.44 37.13 35.19 36.17 37.36 36.51 38.49 37.32 33.53 30.93 30.94 31.94 33.52 35.85 35.65 36.32 31.69 25.87 20.59 18.29 24.32 27.44 29.94 29.64 29.21 29.17 33.48
46.74 47.48 47.21 47.49 47.85 48.66 48.76 47.83 47.69 48.78 48.23 40.66 40.90 41.07 37.34 32.07 28.89 29.51 32.60 33.07 35.04 35.12 32.27 36.51 39.34 39.66 38.98 34.91 31.43 26.08 23.26 25.61 25.19 31.23 37.62 35.48 34.86 28.81 26.41 19.61 19.64 26.38 30.93 32.96 32.39 25.52 34.02
47.13 47.15 47.17 47.58 48.18 48.94 47.79 48.43 48.98 49.09 46.62 42.72 39.47 39.82 34.35 28.10 26.95 27.54 32.43 34.05 35.99 34.99 32.29 33.47 35.84 37.06 36.41 31.82 29.70 25.73 22.28 25.87 24.18 24.98 29.65 31.54 32.48 28.14 28.45 24.40 25.30 30.42 32.34 33.07 23.99 26.00 34.67
47.22 47.10 47.20 47.58 48.29 47.96 47.76 48.98 49.93 49.37 46.64 41.83 37.57 37.85 34.01 28.31 28.03 29.87 32.03 31.88 34.14 33.47 31.89 33.73 36.61 36.91 34.42 32.03 29.79 26.52 24.13 25.72 23.88 24.85 26.34 26.58 24.23 24.32 27.92 22.18 18.49 32.53 32.19 28.80 31.18 33.35 34.80
47.02 47.12 47.09 48.43 48.92 48.58 48.84 50.77 50.17 49.67 47.31 43.44 36.13 38.19 36.86 31.51 29.88 32.77 35.30 34.20 32.15 32.62 34.13 31.95 32.19 31.73 34.77 28.10 27.87 27.77 26.46 24.16 23.24 21.90 25.70 24.97 27.32 25.40 27.01 26.50 31.23 32.06 31.89 32.86 33.98 34.39 33.76
MSLP
1024.03 1023.66 1023.15 1022.62 1022.04 1021.57 1020.95 1020.30 1019.85 1019.43 1018.79 1017.92 1016.92 1016.20 1015.97 1016.12 1016.60 1016.79 1016.84 1016.65 1016.58 1016.54 1016.67 1016.79 1016.89 1017.11 1017.13 1017.57 1016.38 1015.22 1015.09 1015.20 1015.28 1015.53 1015.70 1015.81 1016.02 1015.87 1015.36 1014.70 1014.53 1013.58 1013.31 1013.38 1013.49 1011.65 1011.13
1024.09 1023.71 1023.15 1022.63 1021.97 1021.34 1020.67 1020.14 1019.86 1019.35 1018.62 1017.80 1016.95 1016.58 1016.26 1016.07 1015.83 1016.29 1016.41 1016.31 1016.20 1016.15 1016.59 1016.52 1016.61 1017.03 1017.17 1016.79 1015.08 1015.14 1015.26 1015.18 1015.28 1015.43 1015.51 1015.68 1015.55 1015.47 1014.82 1014.50 1014.03 1013.07 1013.21 1013.27 1013.15 1012.10 1011.20
1024.14 1023.75 1023.05 1022.47 1021.95 1021.16 1020.70 1020.18 1019.56 1018.93 1018.45 1017.72 1017.12 1016.64 1016.13 1015.59 1015.38 1015.69 1015.97 1016.15 1015.94 1016.11 1016.10 1016.54 1016.37 1016.85 1016.84 1015.79 1014.80 1014.98 1015.08 1014.94 1015.04 1015.22 1015.42 1015.28 1015.30 1015.44 1015.17 1014.03 1013.15 1012.89 1013.22 1013.15 1012.81 1011.74 1011.34
1023.90 1023.56 1023.02 1022.47 1021.94 1021.25 1020.70 1020.06 1019.44 1018.73 1018.22 1017.76 1017.32 1016.66 1015.90 1015.05 1014.74 1015.31 1015.72 1015.88 1015.70 1015.87 1015.65 1016.38 1016.40 1016.65 1016.07 1014.70 1014.68 1014.85 1014.68 1014.66 1014.86 1015.08 1015.18 1014.81 1014.99 1014.88 1014.61 1014.10 1013.01 1012.94 1013.64 1012.75 1011.40 1011.07 1011.36
1024.13 1023.61 1023.14 1022.59 1021.97 1021.33 1020.73 1020.02 1019.33 1018.76 1018.11 1017.51 1017.11 1016.55 1015.74 1015.16 1014.51 1015.04 1015.43 1015.57 1015.40 1015.41 1015.52 1015.96 1016.38 1016.71 1015.52 1014.55 1014.71 1014.50 1014.52 1014.67 1014.70 1014.70 1014.61 1014.45 1014.55 1014.22 1013.83 1013.21 1012.65 1012.61 1012.71 1012.23 1010.97 1010.54 1010.91
1024.11 1023.81 1023.29 1022.58 1021.94 1021.27 1020.65 1020.01 1019.27 1018.65 1018.07 1017.49 1017.04 1016.39 1015.25 1014.22 1014.22 1014.77 1015.09 1015.41 1015.04 1015.23 1015.35 1015.69 1016.02 1017.05 1015.26 1014.59 1014.45 1014.37 1014.54 1014.65 1014.66 1014.40 1014.19 1014.16 1013.94 1013.38 1013.22 1012.87 1011.82 1011.62 1011.97 1011.11 1010.60 1010.44 1010.56
1024.01 1023.62 1023.23 1022.55 1021.92 1021.37 1020.56 1019.88 1019.32 1018.66 1018.17 1017.63 1016.88 1016.26 1015.22 1013.43 1013.94 1014.54 1015.08 1015.51 1015.70 1015.47 1015.35 1014.64 1014.76 1014.71 1014.33 1014.49 1014.39 1014.37 1014.36 1014.61 1014.42 1014.18 1013.70 1013.52 1013.33 1012.78 1012.52 1011.93 1011.66 1010.94 1010.78 1010.73 1010.60 1010.39 1010.30
1023.77 1023.19 1022.67 1022.10 1021.55 1020.94 1020.42 1019.78 1019.19 1018.61 1018.24 1017.52 1016.99 1016.26 1015.78 1014.43 1014.19 1014.46 1014.90 1014.96 1014.47 1014.31 1014.39 1013.96 1014.08 1014.35 1014.12 1014.16 1014.26 1014.05 1014.26 1014.42 1014.02 1013.54 1013.25 1013.15 1012.37 1012.09 1011.76 1011.28 1010.82 1010.32 1010.38 1010.76 1010.63 1010.66 1010.50
1023.45 1022.91 1022.35 1021.74 1021.18 1020.60 1020.06 1019.51 1018.77 1018.32 1017.92 1017.51 1016.97 1016.27 1015.68 1015.27 1014.53 1014.60 1014.61 1014.41 1013.92 1014.10 1014.29 1013.46 1013.61 1013.62 1013.75 1014.09 1013.73 1013.66 1013.81 1013.85 1013.57 1013.35 1012.97 1012.36 1011.76 1011.49 1011.45 1011.22 1010.60 1010.42 1010.16 1010.55 1010.42 1010.85 1011.34
1023.20 1022.54 1022.04 1021.39 1020.78 1020.22 1019.70 1019.11 1018.55 1017.95 1017.58 1017.23 1016.92 1016.23 1015.62 1015.57 1015.20 1014.19 1014.14 1013.44 1013.87 1013.78 1014.06 1013.36 1013.13 1012.84 1013.44 1013.52 1013.41 1013.07 1013.33 1013.56 1013.24 1012.89 1012.41 1011.92 1011.35 1011.16 1011.16 1011.07 1010.64 1010.05 1009.99 1010.48 1010.73 1011.17 1011.56
1022.94 1022.15 1021.49 1021.04 1020.48 1019.84 1019.38 1018.75 1018.15 1017.52 1017.02 1016.66 1016.42 1015.99 1015.33 1015.11 1014.25 1014.00 1013.53 1013.37 1013.65 1013.80 1013.80 1012.99 1012.80 1012.46 1012.95 1013.23 1013.00 1012.93 1013.03 1013.31 1012.87 1012.55 1012.53 1011.73 1011.17 1011.27 1010.82 1010.71 1010.91 1010.21 1009.83 1010.35 1010.78 1010.75 1010.87
1022.28 1021.68 1021.08 1020.50 1020.15 1019.67 1019.03 1018.46 1017.91 1017.22 1016.54 1016.11 1015.56 1015.40 1014.93 1014.38 1014.25 1013.74 1013.35 1013.41 1013.76 1014.15 1013.23 1012.71 1012.51 1012.50 1012.99 1012.78 1012.79 1012.70 1012.83 1012.98 1012.35 1012.04 1012.15 1011.65 1011.17 1011.10 1010.74 1010.44 1010.32 1010.05 1010.32 1010.48 1010.65 1011.18 1011.93
1021.88 1021.18 1020.96 1020.31 1019.81 1019.11 1018.66 1018.11 1017.39 1016.73 1015.99 1015.58 1015.27 1014.57 1014.56 1014.07 1013.64 1013.53 1013.67 1013.72 1014.18 1013.32 1012.68 1012.70 1012.40 1012.42 1012.35 1012.46 1012.44 1012.38 1012.43 1012.43 1012.41 1012.42 1012.06 1011.75 1011.41 1010.99 1010.76 1010.44 1010.49 1010.40 1010.63 1011.23 1011.79 1011.97 1012.63
1021.30 1020.76 1020.37 1019.92 1019.37 1018.74 1018.18 1017.70 1016.90 1016.23 1015.45 1014.85 1014.27 1013.83 1013.15 1012.76 1012.58 1013.31 1013.85 1013.90 1013.43 1012.01 1012.10 1011.86 1012.04 1012.50 1012.40 1012.30 1012.17 1012.16 1012.02 1012.23 1012.22 1012.43 1012.06 1011.82 1011.88 1011.65 1011.35 1011.33 1011.19 1011.14 1010.82 1010.63 1011.27 1012.38 1012.55
1020.93 1020.36 1019.83 1019.42 1018.68 1018.27 1017.81 1017.19 1016.33 1015.64 1014.87 1014.13 1013.43 1012.33 1011.65 1010.50 1011.75 1012.83 1013.56 1013.15 1011.77 1011.45 1011.16 1011.50 1012.14 1012.43 1012.58 1012.39 1012.28 1012.11 1012.23 1012.07 1012.02 1011.94 1011.93 1012.18 1012.51 1012.22 1011.71 1011.52 1011.52 1010.95 1010.83 1010.98 1011.31 1011.52 1011.78
1020.44 1019.97 1019.42 1019.01 1018.38 1017.96 1017.45 1016.63 1015.86 1015.16 1014.31 1013.61 1012.89 1011.35 1010.37 1010.28 1011.28 1012.45 1013.18 1012.28 1011.55 1011.17 1010.69 1011.14 1011.61 1011.96 1012.39 1012.47 1012.54 1012.29 1012.21 1011.90 1011.73 1011.83 1011.77 1012.09 1012.71 1012.78 1012.35 1011.81 1011.50 1011.37 1011.77 1011.80 1011.79 1012.78 1013.43
1020.10 1019.47 1018.93 1018.53 1018.04 1017.71 1017.00 1016.21 1015.51 1014.71 1013.98 1013.23 1012.46 1011.49 1010.12 1010.66 1011.41 1012.40 1012.49 1011.95 1011.30 1010.93 1010.71 1010.64 1011.23 1011.68 1012.04 1012.28 1012.42 1012.36 1012.24 1011.83 1011.61 1011.69 1011.75 1012.13 1012.71 1013.75 1013.37 1012.94 1012.30 1012.09 1012.01 1012.28 1012.61 1013.41 1013.60
1019.66 1019.10 1018.54 1018.08 1017.86 1017.27 1016.60 1015.86 1015.28 1014.49 1013.69 1013.42 1012.77 1012.01 1011.18 1010.87 1011.92 1012.31 1012.24 1011.80 1011.37 1011.06 1010.68 1010.38 1010.56 1010.98 1011.66 1012.08 1012.20 1012.34 1012.29 1012.07 1011.63 1011.55 1011.92 1012.43 1013.30 1014.00 1013.85 1013.08 1012.73 1012.63 1012.61 1012.70 1012.80 1013.96 1014.23
1019.10 1018.56 1018.10 1017.69 1017.45 1016.89 1016.18 1015.57 1015.08 1014.39 1013.77 1013.55 1012.81 1012.11 1011.24 1011.15 1011.83 1012.24 1012.26 1012.03 1011.68 1011.20 1010.65 1010.29 1010.24 1010.41 1011.15 1011.82 1012.21 1012.27 1012.27 1012.17 1011.93 1011.96 1012.17 1012.32 1013.50 1014.60 1014.56 1014.07 1013.15 1013.08 1013.19 1013.33 1013.35 1013.93 1014.87
1018.56 1018.15 1017.65 1017.27 1017.09 1016.39 1015.85 1015.27 1014.73 1014.27 1014.01 1014.05 1013.45 1012.73 1011.81 1012.02 1012.18 1012.19 1012.44 1012.34 1012.06 1010.95 1010.61 1010.16 1010.13 1010.20 1010.98 1011.77 1011.95 1012.37 1012.47 1012.40 1012.18 1012.25 1012.25 1012.37 1013.82 1014.50 1015.14 1014.84 1014.40 1013.94 1013.67 1013.73 1013.97 1014.66 1014.92
1018.34 1017.97 1017.31 1017.09 1016.61 1015.89 1015.41 1014.82 1014.43 1014.19 1014.10 1014.14 1013.92 1013.13 1012.40 1012.52 1012.74 1012.59 1012.51 1012.63 1012.06 1011.14 1010.52 1010.27 1010.19 1010.32 1010.90 1011.80 1012.24 1012.63 1012.77 1012.71 1012.62 1012.63 1012.92 1013.41 1015.05 1015.62 1015.94 1015.65 1014.97 1014.51 1014.34 1014.23 1014.36 1014.67 1014.84
1017.97 1017.66 1017.13 1016.68 1016.08 1015.58 1015.12 1014.59 1014.13 1013.99 1013.83 1014.03 1013.89 1013.23 1012.70 1012.72 1012.66 1012.84 1012.82 1012.59 1012.00 1011.10 1010.74 1010.65 1010.59 1010.78 1010.92 1011.56 1011.97 1012.55 1012.61 1012.81 1013.00 1013.26 1013.70 1014.46 1016.00 1016.26 1016.49 1015.83 1015.49 1014.94 1014.88 1014.97 1014.94 1014.84 1014.89
1017.69 1017.31 1016.81 1016.11 1015.62 1015.19 1014.75 1014.33 1013.97 1013.73 1013.81 1013.80 1013.28 1012.93 1012.94 1013.04 1012.84 1012.92 1012.78 1012.59 1011.77 1011.16 1011.08 1010.76 1010.71 1011.07 1011.33 1011.55 1011.78 1012.18 1012.45 1012.77 1013.06 1013.57 1014.30 1015.16 1016.08 1016.88 1017.44 1016.67 1015.75 1015.34 1014.84 1014.74 1014.69 1014.68 1014.64
1017.15 1016.99 1016.31 1015.76 1015.05 1014.54 1014.13 1013.67 1013.29 1013.05 1013.23 1013.47 1013.07 1013.22 1013.06 1013.26 1013.14 1012.97 1012.73 1012.62 1012.22 1011.66 1011.51 1011.41 1011.17 1011.23 1011.98 1011.79 1012.09 1012.54 1012.93 1013.41 1013.55 1014.06 1014.06 1015.03 1016.15 1017.08 1017.68 1017.20 1016.57 1015.16 1014.74 1014.44 1014.40 1014.34 1014.54
1016.80 1016.51 1015.80 1015.36 1014.76 1014.18 1013.50 1012.93 1012.61 1012.29 1011.99 1012.31 1012.58 1012.99 1012.92 1013.33 1013.59 1013.45 1013.06 1012.80 1012.57 1012.12 1012.36 1012.17 1012.07 1012.23 1012.02 1012.18 1012.97 1013.59 1014.08 1014.17 1014.57 1014.66 1014.52 1014.51 1015.76 1017.11 1017.52 1017.31 1016.03 1014.68 1014.37 1014.23 1014.09 1014.49 1014.52
1016.50 1016.08 1015.55 1014.90 1014.39 1013.64 1013.00 1012.51 1011.99 1011.71 1011.34 1012.07 1012.65 1012.70 1012.84 1013.55 1014.80 1014.57 1013.66 1013.20 1013.05 1012.94 1013.13 1013.06 1012.72 1012.34 1012.32 1013.02 1013.85 1014.60 1015.21 1015.42 1015.57 1015.40 1015.17 1015.16 1015.29 1016.43 1017.10 1017.07 1016.15 1014.89 1014.23 1014.08 1014.21 1014.72 1014.76
1016.28 1015.86 1015.21 1014.59 1013.89 1013.09 1012.60 1012.20 1011.63 1011.31 1011.53 1011.83 1012.71 1012.94 1013.15 1014.30 1015.48 1015.26 1014.65 1014.07 1013.50 1013.58 1013.77 1013.59 1013.24 1013.03 1012.95 1014.21 1015.01 1015.61 1016.12 1016.20 1016.29 1016.15 1016.19 1016.00 1016.06 1016.52 1016.78 1016.76 1015.98 1014.88 1014.52 1014.52 1015.03 1015.70 1014.96
1015.90 1015.38 1014.89 1014.22 1013.53 1012.88 1012.12 1011.13 1010.63 1010.94 1011.58 1011.93 1013.01 1012.97 1013.23 1014.77 1015.87 1015.68 1015.26 1014.93 1014.36 1013.96 1014.12 1014.25 1014.11 1014.08 1014.64 1015.49 1015.98 1016.34 1016.73 1016.67 1016.71 1016.53 1016.36 1016.43 1016.65 1016.86 1016.86 1016.69 1015.77 1014.72 1015.00 1015.22 1015.24 1015.24 1015.35
1015.61 1014.98 1014.55 1013.95 1013.10 1012.38 1011.19 1009.98 1009.87 1010.67 1011.49 1011.92 1012.93 1013.09 1013.34 1014.19 1015.96 1015.94 1015.71 1015.51 1015.51 1015.09 1014.66 1014.66 1014.75 1014.69 1014.83 1015.76 1016.29 1016.87 1017.18 1017.32 1017.24 1017.20 1016.76 1016.78 1016.29 1016.31 1016.22 1015.64 1014.98 1014.96 1015.06 1015.08 1015.23 1015.47 1015.82
Wind_Speed
20 21 22 22 22 21 21 22 23 24 25 24 24 25 17 13 9 8 9 10 11 9 12 10 11 7 4 1 9 4 8 6 3 3 3 3 7 8 9 5 9 18 16 8 20 16 12
21 20 21 22 21 22 22 21 20 22 24 26 26 19 21 16 11 9 9 11 9 9 11 9 8 1 3 10 3 3 3 3 3 3 2 4 7 6 10 8 15 8 14 23 22 23 10
20 21 21 22 22 20 21 21 22 22 23 25 26 26 21 30 14 11 9 10 9 9 7 9 7 2 3 13 2 3 4 3 3 3 3 4 4 4 4 6 14 10 11 7 26 17 7
22 20 21 22 22 22 23 22 23 24 23 24 26 26 24 34 14 9 7 8 7 6 4 6 8 2 7 3 2 4 3 2 3 3 4 7 5 9 6 11 4 6 3 7 12 12 5
21 22 22 22 22 22 22 23 23 25 26 24 25 27 27 30 12 8 6 8 8 5 3 5 2 2 7 3 3 1 1 4 2 4 5 6 3 5 7 4 5 7 7 10 1 12 8
21 22 22 22 22 22 22 22 24 24 24 23 26 27 27 28 11 6 2 7 5 3 3 2 3 3 4 4 2 1 2 2 3 4 4 3 4 3 3 4 4 10 8 3 4 7 9
21 21 22 22 21 23 24 22 23 23 25 26 28 26 31 8 11 7 3 2 1 1 2 8 7 5 2 1 1 3 1 2 3 4 2 5 5 3 5 12 10 9 10 7 3 5 6
22 22 22 20 23 21 22 23 22 22 23 25 29 26 30 24 6 6 4 3 1 1 4 14 6 6 3 3 2 3 4 2 3 3 2 3 5 5 3 3 4 8 17 8 8 9 6
23 22 22 23 23 23 25 25 24 23 23 26 27 26 25 34 4 3 3 4 4 4 1 3 6 5 4 6 3 3 4 1 4 2 5 5 2 2 4 3 5 9 15 9 6 7 7
24 25 24 24 25 25 25 25 26 25 24 24 24 27 22 31 2 3 4 6 5 2 4 4 4 3 4 3 3 4 5 3 4 3 3 6 1 2 7 0 2 4 5 10 14 8 2
24 25 25 25 25 25 26 26 26 25 23 22 23 25 22 27 3 3 1 6 6 2 3 2 3 3 4 4 2 5 3 4 4 3 2 2 1 4 4 3 2 1 7 6 4 6 5
25 26 25 26 27 25 27 27 27 27 22 22 25 23 25 6 3 3 5 5 1 4 5 4 4 4 3 4 3 4 4 4 4 1 3 2 1 1 1 6 0 8 13 7 5 3 3
26 26 26 27 25 25 26 28 27 26 25 24 25 26 19 7 3 5 3 3 2 3 2 5 4 5 3 3 3 3 3 2 1 2 0 1 3 1 3 7 7 5 2 2 3 4 1
25 24 26 27 27 27 26 28 27 26 26 26 25 26 11 10 8 7 2 2 4 2 5 1 4 5 3 1 2 2 2 2 5 4 2 4 3 6 7 3 3 1 1 2 4 4 3
25 26 25 26 26 26 27 28 28 27 26 26 28 5 7 9 12 7 5 3 7 5 5 8 4 4 1 1 1 2 2 2 2 2 3 4 4 4 6 1 0 1 5 2 5 4 5
25 26 26 26 27 26 27 28 28 26 26 27 7 6 5 14 14 8 2 3 1 2 1 3 4 3 5 4 3 1 1 1 3 1 3 2 5 5 5 3 3 2 2 1 4 4 4
25 25 27 26 27 26 27 27 27 27 26 19 4 5 1 12 7 4 2 4 1 2 2 3 3 4 3 4 3 2 1 2 3 3 3 3 3 1 3 3 2 4 3 3 4 3 4
24 24 26 26 26 26 27 26 26 25 26 5 4 3 4 8 4 1 3 2 3 4 3 3 3 4 5 4 3 2 2 1 6 4 4 2 6 3 1 1 2 1 3 1 3 1 3
22 24 26 26 25 26 26 25 23 23 21 4 5 3 2 2 3 3 1 3 4 3 3 3 2 3 3 5 5 2 2 4 4 4 1 1 3 3 6 5 4 4 3 3 4 3 1
21 23 25 25 27 26 25 23 22 22 18 2 3 3 3 2 3 4 3 3 1 3 3 3 3 4 4 3 5 4 2 4 3 3 7 5 4 3 5 2 0 3 3 3 4 4 2
21 24 24 26 27 25 23 22 21 19 9 2 1 2 3 3 2 3 2 2 3 4 0 2 3 3 5 4 4 3 2 1 4 6 5 5 5 4 4 4 2 1 1 1 3 3 3
21 24 25 26 25 24 22 21 19 16 13 3 2 2 1 1 6 5 2 2 5 4 1 0 5 4 3 6 6 7 6 2 2 6 4 3 1 2 6 6 4 1 1 2 1 3 3
22 23 25 25 25 23 21 19 17 13 8 2 2 2 1 2 2 4 4 2 3 2 5 2 7 5 4 3 4 5 4 5 5 5 3 4 4 3 3 5 7 4 3 5 2 1 6
21 22 24 24 24 24 23 20 16 14 10 3 3 1 2 1 2 3 4 6 2 2 1 3 4 4 1 4 7 6 9 8 9 6 2 5 4 2 2 3 2 4 1 1 4 3 4
22 23 23 24 25 25 24 18 15 17 21 2 2 3 2 1 0 3 3 3 2 5 4 3 5 2 4 4 5 5 5 4 5 7 6 4 4 4 3 2 5 2 2 3 3 2 4
22 23 23 25 26 23 18 19 20 18 9 4 2 0 1 4 1 3 1 4 2 3 3 3 3 2 2 4 4 3 2 2 1 3 4 4 5 5 2 3 3 4 3 2 2 4 1
22 22 24 25 25 22 21 20 20 11 9 4 2 2 3 5 2 3 2 2 3 5 3 2 2 3 3 3 3 2 1 1 4 6 3 1 2 3 2 2 7 5 3 0 4 5 2
21 22 23 25 25 22 23 25 11 8 13 4 1 2 3 4 2 2 3 2 4 2 4 3 3 4 4 3 2 2 2 4 2 3 5 5 5 3 2 1 6 5 3 5 4 0 2
20 20 23 23 24 23 26 13 8 22 14 3 3 2 2 6 3 1 1 2 2 3 3 3 3 2 4 5 2 3 2 1 3 3 2 2 6 5 8 6 2 3 3 1 3 4 4
Wind_Direction
357 355 355 351 349 347 348 349 347 343 339 336 336 344 255 237 243 267 279 286 292 298 302 298 301 323 94 313 252 278 309 319 105 132 200 229 247 252 248 248 227 224 228 223 273 253 252
355 354 350 351 346 350 351 349 351 348 345 343 338 349 337 295 216 235 260 278 289 295 306 297 298 154 134 261 193 231 331 280 195 174 215 205 239 295 262 251 241 186 219 228 251 260 250
354 353 349 349 348 354 347 349 352 353 348 344 343 340 330 329 214 218 250 280 295 305 314 311 298 274 229 254 207 233 273 214 183 183 230 223 246 202 322 267 225 225 202 241 254 238 191
350 356 349 348 350 357 351 356 355 348 350 349 343 344 333 328 197 211 255 276 285 291 317 283 278 193 253 231 229 272 208 239 189 214 214 245 242 247 185 266 259 141 82 292 190 219 156
354 350 351 348 348 351 351 352 350 346 341 350 342 341 335 329 187 196 247 277 284 280 236 246 242 198 262 324 217 261 255 243 224 253 230 248 216 224 265 237 207 138 254 213 143 184 156
353 345 343 343 347 347 349 351 346 345 348 345 347 342 336 322 178 190 244 291 276 191 101 105 84 259 265 225 194 284 256 272 248 274 258 186 219 245 245 194 208 164 207 141 144 183 190
345 346 343 341 344 345 344 348 346 348 347 348 344 345 339 297 151 146 121 130 170 125 186 197 182 229 143 128 107 207 209 195 218 225 260 199 244 240 282 229 255 144 134 131 121 163 198
338 336 338 335 338 342 345 341 346 346 348 346 345 341 338 346 111 124 137 241 297 170 281 221 227 262 238 185 246 220 151 241 229 291 260 251 251 175 216 352 194 131 123 112 72 123 52
331 332 332 334 336 337 338 339 341 343 346 346 343 343 348 350 139 156 206 224 125 187 79 270 188 193 190 171 219 184 188 198 232 230 245 273 296 162 131 263 140 143 149 159 123 119 110
331 329 330 329 332 335 334 334 334 336 340 343 340 337 341 350 287 167 217 215 173 157 67 216 212 225 119 189 243 154 197 217 217 276 261 276 175 228 163 147 323 156 149 169 150 175 124
328 327 330 331 331 330 329 326 325 328 330 332 331 330 321 336 245 211 158 126 153 60 12 132 160 107 131 183 159 208 173 137 244 218 231 319 33 128 202 143 136 127 117 129 117 99 105
325 323 327 326 331 332 326 326 328 324 323 324 323 329 324 322 289 322 158 136 63 56 244 196 136 171 180 197 199 140 197 202 268 342 359 287 327 353 270 146 251 112 103 80 54 61 50
324 326 328 328 324 327 331 330 325 319 319 319 317 318 312 261 223 165 233 130 98 176 33 199 179 160 204 175 159 189 163 190 244 187 236 22 50 356 355 79 14 51 35 101 59 50 84
325 332 325 324 323 324 331 329 324 322 319 318 317 312 274 245 181 149 182 117 178 182 188 122 127 118 143 70 25 13 57 9 176 191 69 42 57 9 335 52 111 63 324 108 108 135 126
325 326 329 322 322 325 332 327 325 322 322 320 319 294 271 180 153 141 166 188 197 189 173 147 100 110 155 82 123 68 81 262 246 193 131 114 57 332 52 329 334 330 25 350 113 28 67
321 323 324 331 323 331 329 324 326 324 328 332 321 286 254 138 142 139 156 217 183 180 89 125 137 135 163 174 120 52 323 245 308 146 199 203 90 3 350 336 36 84 265 112 7 104 82
321 322 322 325 328 332 326 325 327 325 334 339 287 325 140 129 113 130 158 214 346 165 215 153 150 114 124 147 141 135 320 335 345 8 87 109 83 67 356 19 321 351 25 42 116 75 140
317 322 321 325 329 327 326 326 329 331 335 359 287 302 333 154 101 146 143 184 36 247 177 271 134 115 134 166 125 103 108 295 351 329 44 21 121 96 150 267 275 310 342 58 88 346 44
319 322 320 326 331 327 325 328 331 335 344 328 322 295 215 86 107 139 44 75 21 306 201 229 128 123 129 146 99 73 80 353 2 36 50 173 39 74 356 353 354 42 22 77 82 73 37
322 319 324 326 327 325 325 328 331 338 357 34 311 316 360 50 335 99 125 88 291 241 256 257 106 83 101 84 36 133 96 16 9 69 42 73 61 99 150 150 347 355 9 37 85 74 187
325 321 323 328 324 323 327 329 333 335 8 66 292 297 335 123 134 94 86 110 168 273 211 321 53 139 135 105 74 88 79 89 28 353 26 69 69 58 70 39 42 10 109 347 58 169 94
325 322 326 326 323 328 328 331 335 334 348 188 238 255 47 51 156 125 149 90 214 223 97 264 130 135 106 141 165 182 140 158 139 18 54 37 102 67 3 355 22 89 350 151 83 126 72
323 327 324 326 328 330 328 329 325 324 2 246 211 321 49 23 107 166 183 143 286 282 13 92 142 105 84 115 127 118 99 87 123 132 107 80 120 70 311 336 342 335 216 183 160 166 148
322 326 324 328 328 332 328 325 322 314 307 235 222 238 169 178 189 189 177 171 282 345 102 358 49 94 48 111 104 68 66 76 69 30 87 124 94 78 200 7 35 233 125 171 204 227 221
325 323 329 329 330 329 326 323 316 317 305 194 137 188 159 117 195 199 146 130 59 54 43 27 9 304 128 36 70 65 1 40 27 26 15 69 121 89 105 188 278 348 337 169 116 264 190
326 332 328 330 331 328 332 330 324 318 138 101 101 303 141 124 8 305 68 163 179 100 49 19 343 13 60 69 69 93 154 150 347 38 13 52 91 106 163 94 225 249 281 211 153 308 227
326 331 328 331 332 333 336 325 316 313 142 105 73 22 86 105 330 339 39 88 42 94 99 95 69 42 47 46 65 104 194 225 156 155 180 99 102 153 178 236 288 244 264 71 76 236 140
324 328 331 332 332 333 329 319 280 162 155 74 92 29 116 97 15 3 354 17 338 79 123 202 88 13 64 81 160 159 146 215 99 175 180 167 135 188 109 158 276 188 87 162 210 262 175
328 331 333 332 333 338 342 349 157 153 153 115 84 331 43 81 138 136 47 77 342 286 132 18 149 143 165 92 64 116 135 118 151 228 23 223 181 184 177 215 230 201 220 159 174 170 193